TWB730 RKSS-RKPC

Flight info

Callsign TWB730
Flight time 0h 43m
Altitude 24000
Route BULTI Y711 DOTOL
Aircraft B738/M-V/N

Departure

Time 2026-05-01 08:20
Airport Gimpo International Airport (RKSS)

Arrival

Time 2026-05-01 09:03
Airport Jeju International Airport (RKPC)
Time Latitude Longitude Altitude Speed Heading
2026-05-01 07:52 37.55790 126.80250 77 ft 0 kts 45°
2026-05-01 08:09 37.55785 126.80243 77 ft 2 kts 45°
2026-05-01 08:10 37.55764 126.80216 76 ft 2 kts 45°
2026-05-01 08:10 37.55742 126.80189 75 ft 2 kts 47°
2026-05-01 08:11 37.55742 126.80154 75 ft 0 kts 130°
2026-05-01 08:11 37.55748 126.80148 76 ft 0 kts 136°
2026-05-01 08:14 37.55744 126.80153 75 ft 2 kts 135°
2026-05-01 08:14 37.55718 126.80185 74 ft 7 kts 135°
2026-05-01 08:14 37.55670 126.80246 72 ft 11 kts 134°
2026-05-01 08:14 37.55600 126.80299 69 ft 12 kts 184°
2026-05-01 08:15 37.55523 126.80238 62 ft 14 kts 223°
2026-05-01 08:15 37.55374 126.80254 59 ft 10 kts 136°
2026-05-01 08:15 37.55320 126.80319 58 ft 11 kts 137°
2026-05-01 08:16 37.55260 126.80389 56 ft 11 kts 134°
2026-05-01 08:16 37.55206 126.80463 55 ft 11 kts 133°
2026-05-01 08:16 37.55146 126.80540 53 ft 13 kts 136°
2026-05-01 08:16 37.55085 126.80616 52 ft 11 kts 136°
2026-05-01 08:17 37.55025 126.80694 51 ft 13 kts 135°
2026-05-01 08:17 37.54955 126.80780 51 ft 14 kts 136°
2026-05-01 08:17 37.54882 126.80809 51 ft 6 kts 206°
2026-05-01 08:17 37.54866 126.80795 52 ft 0 kts 222°
2026-05-01 08:18 37.54843 126.80769 53 ft 6 kts 224°
2026-05-01 08:19 37.54810 126.80669 56 ft 12 kts 301°
2026-05-01 08:19 37.54893 126.80563 55 ft 24 kts 313°
2026-05-01 08:19 37.55188 126.80181 60 ft 100 kts 316°
2026-05-01 08:19 37.55856 126.79339 111 ft 162 kts 311°
2026-05-01 08:20 37.56670 126.78259 702 ft 178 kts 309°
2026-05-01 08:20 37.57497 126.77062 1461 ft 190 kts 307°
2026-05-01 08:20 37.58429 126.75729 2020 ft 217 kts 309°
2026-05-01 08:20 37.59507 126.74213 2601 ft 245 kts 311°
2026-05-01 08:21 37.60741 126.72695 3643 ft 252 kts 313°
2026-05-01 08:21 37.61888 126.71017 4644 ft 256 kts 299°
2026-05-01 08:21 37.62441 126.68861 4975 ft 259 kts 271°
2026-05-01 08:21 37.61947 126.66685 5096 ft 273 kts 236°
2026-05-01 08:22 37.60563 126.65068 6307 ft 273 kts 222°
2026-05-01 08:22 37.59193 126.63466 7406 ft 272 kts 230°
2026-05-01 08:22 37.57906 126.61720 8481 ft 273 kts 230°
2026-05-01 08:22 37.56571 126.60054 9435 ft 278 kts 220°
2026-05-01 08:23 37.54777 126.59055 10319 ft 292 kts 194°
2026-05-01 08:23 37.52679 126.58810 10731 ft 317 kts 188°
2026-05-01 08:23 37.50421 126.58568 11015 ft 340 kts 189°
2026-05-01 08:23 37.48008 126.58243 11267 ft 364 kts 189°
2026-05-01 08:24 37.45402 126.57892 11504 ft 385 kts 189°
2026-05-01 08:24 37.42717 126.57538 12136 ft 393 kts 189°
2026-05-01 08:24 37.39950 126.57471 12775 ft 404 kts 176°
2026-05-01 08:24 37.37158 126.58153 13540 ft 409 kts 171°
2026-05-01 08:25 37.34383 126.58933 14155 ft 415 kts 172°
2026-05-01 08:25 37.31545 126.59705 14821 ft 419 kts 171°
2026-05-01 08:25 37.28707 126.60606 15436 ft 425 kts 169°
2026-05-01 08:25 37.25857 126.61583 16058 ft 428 kts 169°
2026-05-01 08:26 37.22946 126.62557 16642 ft 432 kts 170°
2026-05-01 08:26 37.20036 126.63516 17222 ft 436 kts 171°
2026-05-01 08:26 37.17073 126.64494 17767 ft 440 kts 171°
2026-05-01 08:26 37.14106 126.65472 18322 ft 443 kts 171°
2026-05-01 08:27 37.11129 126.66451 18839 ft 446 kts 171°
2026-05-01 08:27 37.08086 126.67451 19388 ft 449 kts 171°
2026-05-01 08:27 37.05089 126.68434 19921 ft 451 kts 171°
2026-05-01 08:27 37.02005 126.69445 20434 ft 454 kts 171°
2026-05-01 08:28 36.98957 126.70445 20910 ft 457 kts 170°
2026-05-01 08:28 36.95858 126.71463 21379 ft 459 kts 170°
2026-05-01 08:28 36.92762 126.72481 21816 ft 462 kts 170°
2026-05-01 08:28 36.89643 126.73607 22224 ft 468 kts 166°
2026-05-01 08:29 36.86589 126.75108 22639 ft 473 kts 162°
2026-05-01 08:29 36.83550 126.76723 22992 ft 477 kts 162°
2026-05-01 08:29 36.80486 126.78304 23400 ft 478 kts 163°
2026-05-01 08:29 36.77409 126.79853 23803 ft 474 kts 165°
2026-05-01 08:30 36.74298 126.81169 23833 ft 471 kts 169°
2026-05-01 08:30 36.71146 126.82105 23830 ft 466 kts 176°
2026-05-01 08:30 36.67936 126.82526 23837 ft 460 kts 183°
2026-05-01 08:30 36.64763 126.82656 23835 ft 459 kts 184°
2026-05-01 08:31 36.61595 126.82787 23835 ft 459 kts 184°
2026-05-01 08:31 36.58389 126.82947 23835 ft 459 kts 183°
2026-05-01 08:31 36.55187 126.83099 23835 ft 459 kts 184°
2026-05-01 08:31 36.51984 126.83237 23834 ft 459 kts 184°
2026-05-01 08:32 36.48804 126.83365 23835 ft 459 kts 184°
2026-05-01 08:32 36.45611 126.83493 23845 ft 459 kts 184°
2026-05-01 08:32 36.42432 126.83619 23866 ft 458 kts 184°
2026-05-01 08:32 36.39230 126.83729 23887 ft 457 kts 185°
2026-05-01 08:33 36.36077 126.83556 23912 ft 452 kts 191°
2026-05-01 08:33 36.32967 126.83177 23932 ft 451 kts 191°
2026-05-01 08:33 36.29836 126.82809 23944 ft 451 kts 191°
2026-05-01 08:33 36.26728 126.82477 23945 ft 452 kts 191°
2026-05-01 08:34 36.23597 126.82141 23944 ft 451 kts 191°
2026-05-01 08:34 36.20474 126.81802 23945 ft 451 kts 191°
2026-05-01 08:34 36.17335 126.81460 23945 ft 451 kts 191°
2026-05-01 08:34 36.14223 126.81122 23945 ft 452 kts 191°
2026-05-01 08:35 36.11055 126.80778 23944 ft 452 kts 191°
2026-05-01 08:35 36.07930 126.80438 23945 ft 452 kts 191°
2026-05-01 08:35 36.04817 126.80100 23944 ft 451 kts 191°
2026-05-01 08:35 36.01712 126.79765 23945 ft 451 kts 191°
2026-05-01 08:36 35.98578 126.79424 23945 ft 452 kts 191°
2026-05-01 08:36 35.95430 126.79083 23945 ft 451 kts 191°
2026-05-01 08:36 35.92315 126.78747 23944 ft 451 kts 191°
2026-05-01 08:36 35.89168 126.78407 23944 ft 451 kts 191°
2026-05-01 08:37 35.86057 126.78070 23944 ft 451 kts 191°
2026-05-01 08:37 35.82937 126.77731 23945 ft 451 kts 191°
2026-05-01 08:37 35.79813 126.77393 23945 ft 451 kts 191°
2026-05-01 08:37 35.76702 126.77057 23945 ft 451 kts 191°
2026-05-01 08:38 35.73569 126.76718 23945 ft 451 kts 191°
2026-05-01 08:38 35.70430 126.76379 23944 ft 451 kts 191°
2026-05-01 08:38 35.67285 126.76040 23945 ft 451 kts 191°
2026-05-01 08:38 35.64158 126.75703 23945 ft 451 kts 191°
2026-05-01 08:39 35.61022 126.75365 23945 ft 452 kts 191°
2026-05-01 08:39 35.57924 126.75031 23945 ft 452 kts 191°
2026-05-01 08:39 35.54791 126.74694 23944 ft 451 kts 191°
2026-05-01 08:39 35.51659 126.74358 23944 ft 451 kts 191°
2026-05-01 08:40 35.45407 126.73687 23942 ft 451 kts 191°
2026-05-01 08:40 35.42285 126.73352 23941 ft 452 kts 191°
2026-05-01 08:40 35.39175 126.73019 23940 ft 452 kts 191°
2026-05-01 08:41 35.36044 126.72684 23939 ft 453 kts 191°
2026-05-01 08:41 35.32909 126.72349 23939 ft 453 kts 191°
2026-05-01 08:41 35.29750 126.72012 23939 ft 452 kts 191°
2026-05-01 08:41 35.26618 126.71679 23939 ft 452 kts 191°
2026-05-01 08:42 35.23519 126.71349 23939 ft 452 kts 191°
2026-05-01 08:42 35.20359 126.71011 23939 ft 453 kts 191°
2026-05-01 08:42 35.17258 126.70682 23939 ft 453 kts 191°
2026-05-01 08:42 35.14106 126.70346 23938 ft 453 kts 191°
2026-05-01 08:43 35.10965 126.70013 23938 ft 453 kts 191°
2026-05-01 08:43 35.07851 126.69684 23939 ft 453 kts 191°
2026-05-01 08:43 35.04711 126.69354 23939 ft 453 kts 191°
2026-05-01 08:43 35.01591 126.69024 23938 ft 452 kts 190°
2026-05-01 08:44 34.98473 126.68695 23938 ft 448 kts 190°
2026-05-01 08:44 34.95375 126.68368 23881 ft 446 kts 189°
2026-05-01 08:44 34.92286 126.68040 23621 ft 445 kts 189°
2026-05-01 08:44 34.89176 126.67711 23369 ft 442 kts 188°
2026-05-01 08:45 34.86131 126.67390 23121 ft 441 kts 188°
2026-05-01 08:45 34.83097 126.67069 22871 ft 440 kts 188°
2026-05-01 08:45 34.80027 126.66745 22618 ft 439 kts 188°
2026-05-01 08:45 34.77021 126.66428 22370 ft 437 kts 188°
2026-05-01 08:46 34.73967 126.66106 22116 ft 435 kts 188°
2026-05-01 08:46 34.70967 126.65787 21866 ft 434 kts 188°
2026-05-01 08:46 34.67963 126.65469 21615 ft 433 kts 187°
2026-05-01 08:46 34.64949 126.65152 21362 ft 431 kts 187°
2026-05-01 08:47 34.61978 126.64840 20945 ft 424 kts 187°
2026-05-01 08:47 34.59088 126.64538 20266 ft 415 kts 187°
2026-05-01 08:47 34.56192 126.64233 19557 ft 420 kts 187°
2026-05-01 08:47 34.53285 126.63927 18818 ft 413 kts 187°
2026-05-01 08:48 34.50451 126.63631 18101 ft 405 kts 187°
2026-05-01 08:48 34.47625 126.63333 17385 ft 410 kts 186°
2026-05-01 08:48 34.44843 126.63042 16656 ft 403 kts 186°
2026-05-01 08:48 34.42050 126.62750 16034 ft 394 kts 186°
2026-05-01 08:49 34.39310 126.62463 15900 ft 399 kts 186°
2026-05-01 08:49 34.36511 126.62170 15632 ft 404 kts 186°
2026-05-01 08:49 34.33749 126.61883 15068 ft 393 kts 186°
2026-05-01 08:49 34.31080 126.61606 14453 ft 389 kts 186°
2026-05-01 08:50 34.28361 126.61322 13749 ft 392 kts 185°
2026-05-01 08:50 34.25645 126.61179 13039 ft 384 kts 180°
2026-05-01 08:50 34.22998 126.61356 12375 ft 384 kts 176°
2026-05-01 08:50 34.20326 126.61610 11716 ft 382 kts 176°
2026-05-01 08:51 34.17713 126.61847 11277 ft 367 kts 176°
2026-05-01 08:51 34.15226 126.62080 10991 ft 350 kts 176°
2026-05-01 08:51 34.12839 126.62312 10849 ft 331 kts 176°
2026-05-01 08:51 34.10601 126.62533 10692 ft 315 kts 176°
2026-05-01 08:52 34.08442 126.62747 10536 ft 300 kts 176°
2026-05-01 08:52 34.06378 126.62954 10391 ft 294 kts 176°
2026-05-01 08:52 34.04362 126.63156 10239 ft 286 kts 176°
2026-05-01 08:52 34.02393 126.63354 9985 ft 278 kts 176°
2026-05-01 08:53 34.00449 126.63551 9640 ft 275 kts 176°
2026-05-01 08:53 33.98569 126.63741 9306 ft 271 kts 176°
2026-05-01 08:53 33.96679 126.63932 8972 ft 268 kts 176°
2026-05-01 08:53 33.94843 126.64117 8648 ft 264 kts 176°
2026-05-01 08:54 33.93008 126.64302 8326 ft 263 kts 176°
2026-05-01 08:54 33.91171 126.64487 8049 ft 263 kts 176°
2026-05-01 08:54 33.89362 126.64671 7816 ft 261 kts 176°
2026-05-01 08:54 33.87540 126.64854 7506 ft 266 kts 176°
2026-05-01 08:55 33.85681 126.65041 7175 ft 266 kts 176°
2026-05-01 08:55 33.83843 126.65227 6847 ft 263 kts 176°
2026-05-01 08:55 33.82040 126.65409 6527 ft 261 kts 176°
2026-05-01 08:55 33.80234 126.65591 6204 ft 260 kts 176°
2026-05-01 08:56 33.78431 126.65771 5881 ft 258 kts 176°
2026-05-01 08:56 33.76659 126.65950 5560 ft 259 kts 176°
2026-05-01 08:56 33.74854 126.66132 5232 ft 256 kts 176°
2026-05-01 08:56 33.73099 126.66308 4915 ft 257 kts 176°
2026-05-01 08:57 33.71311 126.66488 4590 ft 255 kts 176°
2026-05-01 08:57 33.69554 126.66664 4291 ft 251 kts 176°
2026-05-01 08:57 33.67871 126.66834 4161 ft 231 kts 176°
2026-05-01 08:57 33.66327 126.66989 4100 ft 217 kts 177°
2026-05-01 08:58 33.64814 126.67140 4037 ft 214 kts 177°
2026-05-01 08:58 33.63338 126.67288 3823 ft 212 kts 177°
2026-05-01 08:58 33.61857 126.67415 3391 ft 214 kts 182°
2026-05-01 08:58 33.60469 126.66966 3122 ft 201 kts 214°
2026-05-01 08:59 33.59602 126.65734 2886 ft 183 kts 245°
2026-05-01 08:59 33.59025 126.64459 2887 ft 168 kts 238°
2026-05-01 08:59 33.58396 126.63252 2756 ft 170 kts 240°
2026-05-01 08:59 33.57796 126.62071 2511 ft 164 kts 238°
2026-05-01 09:00 33.57205 126.60924 2295 ft 162 kts 240°
2026-05-01 09:00 33.56610 126.59760 2082 ft 158 kts 239°
2026-05-01 09:00 33.56045 126.58659 1855 ft 152 kts 240°
2026-05-01 09:00 33.55510 126.57613 1665 ft 141 kts 238°
2026-05-01 09:01 33.55000 126.56613 1465 ft 140 kts 239°
2026-05-01 09:01 33.54475 126.55589 1290 ft 145 kts 240°
2026-05-01 09:01 33.53940 126.54546 1074 ft 146 kts 241°
2026-05-01 09:01 33.53422 126.53526 875 ft 141 kts 239°
2026-05-01 09:02 33.52899 126.52522 668 ft 140 kts 241°
2026-05-01 09:02 33.52393 126.51537 494 ft 140 kts 239°
2026-05-01 09:02 33.51861 126.50520 321 ft 143 kts 242°
2026-05-01 09:02 33.51347 126.49505 140 ft 136 kts 240°
2026-05-01 09:03 33.50940 126.48661 127 ft 96 kts 237°
2026-05-01 09:03 33.50648 126.48114 127 ft 62 kts 238°
2026-05-01 09:03 33.50440 126.47741 127 ft 44 kts 227°
2026-05-01 09:03 33.50253 126.47532 127 ft 16 kts 189°
2026-05-01 09:04 33.50242 126.47531 127 ft 0 kts 177°
2026-05-01 09:04 33.50240 126.47532 127 ft 1 kts 176°
2026-05-01 09:04 33.50222 126.47536 127 ft 3 kts 160°
2026-05-01 09:04 33.50206 126.47550 127 ft 3 kts 134°
2026-05-01 09:05 33.50189 126.47598 127 ft 6 kts 86°
2026-05-01 09:05 33.50219 126.47672 127 ft 11 kts 58°
2026-05-01 09:05 33.50261 126.47754 127 ft 11 kts 59°
2026-05-01 09:05 33.50307 126.47842 127 ft 14 kts 58°
2026-05-01 09:06 33.50362 126.47949 127 ft 16 kts 58°
2026-05-01 09:06 33.50427 126.48077 127 ft 17 kts 58°
2026-05-01 09:06 33.50488 126.48193 127 ft 15 kts 59°
2026-05-01 09:06 33.50536 126.48290 127 ft 12 kts 58°
2026-05-01 09:07 33.50577 126.48372 127 ft 11 kts 59°
2026-05-01 09:07 33.50618 126.48452 127 ft 11 kts 59°
2026-05-01 09:07 33.50663 126.48537 127 ft 13 kts 58°
2026-05-01 09:07 33.50713 126.48635 127 ft 12 kts 59°
2026-05-01 09:08 33.50758 126.48723 127 ft 12 kts 58°
2026-05-01 09:08 33.50791 126.48818 127 ft 12 kts 101°
2026-05-01 09:08 33.50738 126.48887 127 ft 10 kts 147°
2026-05-01 09:08 33.50695 126.48932 127 ft 7 kts 127°
2026-05-01 09:09 33.50663 126.48967 127 ft 5 kts 147°
2026-05-01 09:09 33.50636 126.48987 127 ft 3 kts 148°
2026-05-01 09:09 33.50618 126.49000 127 ft 2 kts 148°
2026-05-01 09:09 33.50616 126.49003 127 ft 0 kts 148°